Regional Weather Roundup
Issued by NWS

Home | Current Version | Previous Version | Graphics & Text | Print | Product List | Glossary On
Versions: 1 2 3 4 5 6 7 8 9 10 11 12 13 14 15 16 17 18 19 20 21 22 23 24 25 26 27 28 29 30 31 32 33 34 35 36 37 38 39 40 41 42 43 44 45 46 47 48 49 50
000
ASUS43 KLMK 020802
RWRKY
KENTUCKY REGIONAL WEATHER ROUNDUP
NATIONAL WEATHER SERVICE LOUISVILLE KY
300 AM EST MON MAR 02 2015

NOTE "FAIR" INDICATES FEW OR NO CLOUDS BELOW 12,000 FEET
WITH NO SIGNIFICANT WEATHER AND/OR OBSTRUCTIONS TO VISIBILITY.

KYZ001>023-026-027-061>063-070>075-020900-
WESTERN AND SOUTH CENTRAL KENTUCKY

CITY           SKY/WX    TMP DP  RH WIND       PRES   REMARKS
PADUCAH        PTCLDY    30  24  78 N14       30.47R WCI  19
HENDERSON      CLEAR     28  19  69 N9        30.48R WCI  20
OWENSBORO      PTCLDY    28  23  81 N9        30.47R WCI  19
HOPKINSVILLE   CLOUDY    32  28  86 N6        30.43R WCI  26
BOWLING GREEN  CLOUDY    33  30  88 NW7       30.42R FOG     WCI  27
GLASGOW        NOT AVBL
$$

KYZ024-025-028>034-038-045-046-053-020900-
NORTH CENTRAL KENTUCKY

CITY           SKY/WX    TMP DP  RH WIND       PRES   REMARKS
LOUISVILLE/SDF MOCLDY    31  24  75 NW10      30.41R WCI  22
LOUISVILLE/LOU MOCLDY    31  25  78 NW8       30.41R WCI  23
FORT KNOX      CLOUDY    31  25  81 NW8       30.38S WCI  23
$$

KYZ035>037-039>044-047>052-055>060-089>105-020900-
NORTHEAST KENTUCKY

CITY           SKY/WX    TMP DP  RH WIND       PRES   REMARKS
LEXINGTON      CLOUDY    31  30  96 NW10      30.35S WCI  22
COVINGTON      CLOUDY    27  20  75 NW17      30.37R WCI  14
FRANKFORT      CLOUDY    32  28  85 NW6       30.36R WCI  26
$$

KYZ054-064>069-076>088-106>120-020900-
SOUTHEAST KENTUCKY

CITY           SKY/WX    TMP DP  RH WIND       PRES   REMARKS
JACKSON        LGT RAIN  35  33  92 NW8       30.29S WCI  29
LONDON         LGT RAIN  37  33  85 NW8       30.33R WCI  31
SOMERSET       NOT AVBL
MIDDLESBORO    NOT AVBL
MONTICELLO     FLURRIES  37  36  96 NW7       30.38R WCI  31
$$



USA.gov is the U.S. government's official web portal to all federal, state and local government web resources and services.